Regional Weather Roundup
Issued by NWS New Orleans/Baton Rouge, LA

Home | Current Version | Previous Version | Text Only | Print | Product List | Glossary On
Versions: 1 2 3 4 5 6 7 8 9 10 11 12 13 14 15 16 17 18 19 20 21 22 23 24 25 26 27 28 29 30 31 32 33 34 35 36 37 38 39 40 41 42 43 44 45 46 47 48 49 50
972
ASUS44 KLIX 310610
RWRLIX
NEW ORLEANS REGIONAL WEATHER ROUNDUP
NATIONAL WEATHER SERVICE NEW ORLEANS LA
100 AM CDT SUN AUG 31 2014

NOTE: "FAIR" INDICATES FEW OR NO CLOUDS BELOW 12,000 FEET WITH NO
      SIGNIFICANT WEATHER AND/OR OBSTRUCTIONS TO VISIBILITY.
      SKY/WX - SKY CONDITION AND SIGNIFICANT WEATHER.
      TMP - AIR TEMPERATURE.     DP    - DEWPOINT TEMPERATURE.
      RH  - RELATIVE HUMIDITY.   PRES  - PRESSURE.
      HI  - HEAT INDEX.          WCI   - WIND CHILL INDEX.

*  THESE STATIONS ARE NOT NWS OR FAA STATIONS AND ARE NOT UNDER
   NWS QUALITY CONTROL.

LAZ038-040-048-061>063-065>067-069-310700-
SOUTHEAST LOUISIANA

CITY           SKY/WX    TMP DP  RH WIND       PRES   REMARKS
N.O. AUDUBON     N/A     76  76  99 MISG        N/A
6HR MIN TEMP:  75; 6HR MAX TEMP:  79; 6HR PCP:  0.04;

N.O. INTL ARPT MOCLDY    76  73  91 CALM      30.03F
6HR MIN TEMP:  76; 6HR MAX TEMP:  80; 6HR PCP:  0.18;

N.O. LAKEFRONT   N/A    N/A N/A N/A MISG      30.04F
N.O. DOWNTOWN*   N/A     84  72  65 SE3       30.04F
6HR MIN TEMP:  84; 6HR MAX TEMP:  91; 6HR PCP:  0.03;

SLIDELL          N/A     74  72  93 CALM      30.04F
6HR MIN TEMP:  74; 6HR MAX TEMP:  76;

BATON ROUGE      N/A     73  71  93 NE3       30.02S
6HR MIN TEMP:  73; 6HR MAX TEMP:  75; 6HR PCP: TRACE;

BOOTHVILLE     CLOUDY    83  80  91 SE5       30.05S HX  95
6HR MIN TEMP:  83; 6HR MAX TEMP:  86;

BELLE CHASSE     N/A     76  72  87 CALM      30.02F
6HR MIN TEMP:  74; 6HR MAX TEMP:  80;

BOGALUSA*        N/A     75  71  88 CALM      30.06S
6HR MIN TEMP:  75; 6HR MAX TEMP:  77;

GALLIANO*      NOT AVBL
NEW ROADS*       N/A     73  72  98 CALM      30.02S
6HR MIN TEMP:  73; 6HR MAX TEMP:  74; 6HR PCP:  0.01;

GONZALES*        N/A     74  74 100 CALM      30.00F
6HR MIN TEMP:  74; 6HR MAX TEMP:  75; 6HR PCP:  0.07;

HAMMOND*         N/A     73  70  88 CALM      30.04F
HOUMA*           N/A     73  70  91 CALM      30.02F
6HR MIN TEMP:  73; 6HR MAX TEMP:  74; 6HR PCP:  0.02;

PORT FOURCHON* CLOUDY    79  73  83 NE5       30.05F

$$

MSZ070-080>082-310700-
SOUTHERN MISSISSIPPI

CITY           SKY/WX    TMP DP  RH WIND       PRES   REMARKS
MCCOMB         CLOUDY    73  71  93 E3        30.05F
6HR MIN TEMP:  73; 6HR MAX TEMP:  74; 6HR PCP: TRACE;

GULFPORT         N/A     75  73  93 NE3       30.05F
6HR MIN TEMP:  75; 6HR MAX TEMP:  77;

BILOXI           N/A     76  74  93 NE3       30.06S
6HR MIN TEMP:  76; 6HR MAX TEMP:  77;

PASCAGOULA       N/A     74  73  97 CALM      30.06F
6HR MIN TEMP:  74; 6HR MAX TEMP:  76; 6HR PCP: TRACE;


$$

COASTAL OBSERVATIONS
LAKE AND NEARSHORE STATIONS

STATION/POSITION TIME  TEMP    WIND        PRES    WAVE
                       AIR SEA DIR/SP/G            HT/PER
                 (UTC) (F)     (DEG/KT/KT) (MB)    (FT/S)
PASCAGOULA       0600   85     170/  8/ 12 1017.5
WAVELAND YACHT   0600   79      50/  4/  5 1016.9
GRAND ISLE       0600   80 84   40/  5/  5 1017.7
SOUTHWEST PASS   0600   85 90  180/ 11/ 13 1017.7
NEW CANAL        0600   76 80  120/  1/  3 1017.4
SHELL BEACH      0600   81 80  100/  6/  7 1017.1

OFFSHORE STATIONS

STATION/POSITION TIME  TEMP    WIND        PRES    WAVE
                       AIR SEA DIR/SP/G            HT/PER
                 (UTC) (F)     (DEG/KT/KT) (MB)    (FT/S)
64 S DAUPHIN ISL 0600   85     150/ 12       N/A

$$




USA.gov is the U.S. government's official web portal to all federal, state and local government web resources and services.